Home > Weather > Rishon LeZion > Past weeks

Flag for Israel Weather for the Past 2 Weeks in Rishon LeZion, Israel

Now
66 °F

Passing clouds.


Feels Like: 66 °F
Forecast: 63 / 80 °F
Wind: 3 mph from North

Location: Ben Gurion International Airport

Current Time: Apr 29, 2016 at 9:03:50 AM

Latest Report: Apr 29, 2016 at 7:50 AM


Visibility: N/A

Pressure: 30.04 "Hg

Humidity: 64%

Dew Point: 54 °F

Location of Rishon LeZionLocation

Historic Weather in Rishon LeZion — Graph

°F

Rishon LeZion Temperature Yesterday

Maximum temperature yesterday: 73 °F (at 12:20 PM)
Minimum temperature yesterday: 63 °F (at 4:50 AM)
Average temperature yesterday: 68 °F

High & Low Weather Summary for the Past Weeks

 TemperatureHumidityPressure
High104 °F (Apr 26, 2:50 PM)94% (Apr 19, 3:20 AM)30.12 "Hg (Apr 19, 3:20 AM)
Low55 °F (Apr 18, 5:20 AM)7% (Apr 20, 11:20 AM)29.56 "Hg (Apr 25, 12:50 AM)
Average73 °F52%29.92 "Hg
* Reported Apr 14 7:20 AM — Apr 29 7:20 AM, Rishon LeZion, Weather by CustomWeather, © 2016

Note: Actual official high and low records may vary slightly from our data, if they occured in-between our weather recording intervals... More about our weather records

Advertising

Rishon LeZion Weather History for the Previous 24 Hours

Scroll right to see more
 ConditionsComfort  
Time TempWeatherWind HumidityBarometerVisibility
7:20 AM
Fri, Apr 29
64 °FPassing clouds.2 mph68%30.01 "HgN/A
6:50 AM63 °FPassing clouds.2 mph73%30.01 "HgN/A
6:20 AM63 °FPassing clouds.2 mph73%30.01 "HgN/A
5:20 AM64 °FPassing clouds.8 mph68%30.01 "HgN/A
4:50 AM64 °FPassing clouds.3 mph68%29.98 "HgN/A
4:20 AM64 °FPassing clouds.3 mph68%30.01 "HgN/A
3:50 AM64 °FPassing clouds.3 mph64%30.01 "HgN/A
3:20 AM64 °FPassing clouds.6 mph64%29.98 "HgN/A
2:50 AM64 °FPassing clouds.5 mph68%29.98 "HgN/A
2:20 AM64 °FPassing clouds.3 mph68%29.98 "HgN/A
1:20 AM64 °FPassing clouds.5 mph64%29.98 "HgN/A
12:50 AM64 °FPassing clouds.6 mph64%30.01 "HgN/A
12:20 AM64 °FPassing clouds.5 mph64%30.01 "HgN/A
11:50 PM
Thu, Apr 28
64 °FPassing clouds.3 mph68%30.01 "HgN/A
11:20 PM64 °FPassing clouds.2 mph68%30.01 "HgN/A
10:50 PM64 °FPassing clouds.1 mph68%30.01 "HgN/A
10:20 PM64 °FPassing clouds.2 mph68%29.98 "HgN/A
9:50 PM66 °FPassing clouds.2 mph60%29.98 "HgN/A
9:20 PM66 °FPassing clouds.6 mph60%29.98 "HgN/A
8:50 PM66 °FPassing clouds.5 mph60%29.98 "HgN/A
8:20 PM68 °FPassing clouds.7 mph56%29.98 "HgN/A
7:50 PM68 °FScattered clouds.7 mph56%29.98 "HgN/A
7:20 PM68 °FScattered clouds.8 mph56%29.98 "HgN/A
6:50 PM70 °FScattered clouds.7 mph57%29.98 "HgN/A
6:20 PM70 °FScattered clouds.10 mph53%29.98 "HgN/A
5:20 PM70 °FPassing clouds.10 mph53%29.98 "HgN/A
4:50 PM70 °FPassing clouds.13 mph53%29.98 "HgN/A
4:20 PM72 °FPassing clouds.13 mph50%29.98 "HgN/A
3:50 PM72 °FPassing clouds.12 mph50%29.98 "HgN/A
3:20 PM72 °FPassing clouds.13 mph50%29.98 "HgN/A
2:20 PM72 °FPassing clouds.9 mph50%30.01 "HgN/A
1:50 PM73 °FScattered clouds.12 mph47%30.01 "HgN/A
1:20 PM72 °FPassing clouds.13 mph50%30.01 "HgN/A
12:50 PM72 °FPassing clouds.13 mph47%29.98 "HgN/A
12:20 PM73 °FPassing clouds.13 mph44%30.01 "HgN/A
11:20 AM72 °FScattered clouds.12 mph50%30.01 "HgN/A
10:50 AM72 °FScattered clouds.8 mph47%30.01 "HgN/A
10:20 AM70 °FScattered clouds.9 mph50%30.01 "HgN/A
Weather by CustomWeather, © 2016

See weather overviewHow to use our weather pages